Regional Weather Roundup
Issued by NWS Little Rock, AR

Home | Current Version | Previous Version | Graphics & Text | Print | Product List | Glossary On
Versions: 1 2 3 4 5 6 7 8 9 10 11 12 13 14 15 16 17 18 19 20 21 22 23 24 25 26 27 28 29 30 31 32 33 34 35 36 37 38 39 40 41 42 43 44 45 46 47 48
000
ASUS44 KLZK 022105
RWRLZK

WEATHER ROUNDUP FOR ARKANSAS
NATIONAL WEATHER SERVICE LITTLE ROCK AR
400 PM CDT WED SEP 02 2015

NOTE: "FAIR" INDICATES FEW OR NO CLOUDS BELOW 12,000 FEET WITH NO
SIGNIFICANT WEATHER AND/OR OBSTRUCTIONS TO VISIBILITY.

ARZ001-003-010-029-022200-
NORTHWEST ARKANSAS

CITY           SKY/WX    TMP DP  RH WIND       PRES   REMARKS
FAYETTEVILLE   FAIR      86  67  52 SE5       30.05F HX  89
FORT SMITH     FAIR      92  62  36 VRB5      29.98F HX  92
HARRISON       FAIR      87  64  46 S6        30.05F HX  88
BENTONVILLE    FAIR      88  64  45 SW8       30.05F HX  89
ROGERS         FAIR      86  67  52 SE6       30.05F HX  89
SILOAM SPGS    FAIR      88  66  48 S8        30.03F HX  90
HIGHFILL       FAIR      87  70  56 S13       30.04F HX  92
SPRINGDALE     MOSUNNY   88  68  51 SE8       30.07F HX  91
$$

ARZ004-005-016-022200-
NORTH CENTRAL ARKANSAS

CITY           SKY/WX    TMP DP  RH WIND       PRES   REMARKS
BATESVILLE     FAIR      91  68  46 E8        30.02F HX  95
FLIPPIN        FAIR      90  63  40 SE5       30.01F HX  90
MTN HOME       FAIR      89  64  43 MISG      30.03F HX  90
$$

ARZ040-041-022200-
WEST CENTRAL ARKANSAS

CITY           SKY/WX    TMP DP  RH WIND       PRES   REMARKS
MENA           FAIR      91  66  43 S3        30.03F HX  94
MOUNT IDA      FAIR      92  66  42 VRB3      30.00F HX  94
$$

ARZ009-017-025-026-028-022200-
NORTHEAST ARKANSAS

CITY           SKY/WX    TMP DP  RH WIND       PRES   REMARKS
JONESBORO      FAIR      86  70  58 MISG      30.01F HX  90
NEWPORT        FAIR      91  71  51 SE5       30.03F HX  97
WALNUT RIDGE   FAIR      91  64  40 S5        30.01F HX  93
BLYTHEVILLE    FAIR      92  69  47 E5        30.02F HX  97
$$

ARZ022-023-033-042-044-022200-
CENTRAL ARKANSAS

CITY           SKY/WX    TMP DP  RH WIND       PRES   REMARKS
LITTLE ROCK    FAIR      84  68  58 S18G24    30.01F HX  87
N LITTLE ROCK  MOSUNNY   89  71  55 S9        30.01F HX  95
JACKSONVILLE   TSTM      82  73  74 E15       30.01S HX  88
SEARCY         FAIR      86  74  67 NE6       30.02F HX  94
HOT SPRINGS    FAIR      86  67  52 E3        30.02F HX  89
RUSSELLVILLE   FAIR      92  66  42 VRB3      29.99F HX  94
$$

ARZ036-022200-
EAST ARKANSAS

CITY           SKY/WX    TMP DP  RH WIND       PRES   REMARKS
WEST MEMPHIS   TSTM      85  73  67 N10G17    30.01F HX  91
$$

ARZ050-053-066-070-073-022200-
SOUTHWEST ARKANSAS

CITY           SKY/WX    TMP DP  RH WIND       PRES   REMARKS
ARKADELPHIA    FAIR      96  65  35 VRB5      30.00F HX  98
CAMDEN         FAIR      90  66  45 E14G23    30.01R HX  92
TEXARKANA      FAIR      93  65  39 S9        30.00F HX  95
EL DORADO      FAIR      95  68  41 NE8       30.00F HX  99
DE QUEEN       FAIR      92  68  45 E8        29.98F HX  96
$$

ARZ056-057-069-022200-
SOUTHEAST ARKANSAS

CITY           SKY/WX    TMP DP  RH WIND       PRES   REMARKS
PINE BLUFF     PTSUNNY   81  72  74 VRB3      30.03F HX  85
STUTTGART      FAIR      90  70  51 E5        30.01F HX  95
MONTICELLO     FAIR      85  70  60 W9        30.02S HX  89

$$





USA.gov is the U.S. government's official web portal to all federal, state and local government web resources and services.